Probability
0 0 0 0 0 0 0 0 0 0 0 0 1 5 11 14 17 21 26 31 33 32 34 37 41 42 42 43 42 38 33 28 22 19 15 10 5 4 3 2 1 0 0 0
0 0 0 0 0 0 0 0 0 0 0 0 1 5 11 14 14 17 22 29 33 34 35 37 39 39 38 39 37 33 29 23 19 16 13 9 5 4 3 1 0 0 0 0
0 0 0 0 0 0 0 0 0 0 0 0 0 4 11 14 13 12 16 24 30 32 33 34 33 31 29 30 28 26 24 20 16 13 10 7 5 4 2 1 0 0 0 0
0 0 0 0 0 0 0 0 0 0 0 0 0 3 9 13 11 10 14 20 25 28 31 30 28 24 21 20 20 21 20 18 14 11 8 6 4 3 2 1 0 0 0 0
0 0 0 0 0 0 0 0 0 1 1 0 0 1 5 8 8 10 13 18 22 24 26 25 23 20 16 13 12 14 15 15 13 10 8 5 3 3 2 1 0 0 0 0
0 0 0 0 0 0 0 0 0 3 4 3 0 0 1 3 5 7 10 14 17 17 18 19 18 16 12 9 8 10 12 12 10 8 6 4 3 2 2 1 1 1 0 0
0 0 0 0 0 0 0 0 0 3 6 4 1 0 0 1 2 4 7 10 11 10 11 13 13 11 9 8 9 11 12 11 7 4 4 3 2 2 2 2 2 1 0 0
0 0 0 0 0 0 0 0 0 1 2 2 1 0 0 0 1 1 3 6 7 6 7 9 10 9 8 9 11 13 14 11 6 3 2 3 2 1 1 1 1 0 0 0
0 0 0 0 0 0 0 0 0 0 0 0 0 1 0 0 0 0 1 3 4 4 4 6 7 7 7 9 12 14 15 13 9 5 3 3 2 1 0 0 0 0 0 0
0 0 0 0 0 0 0 0 0 0 0 0 0 0 0 0 1 0 0 1 2 3 3 4 4 4 5 8 13 16 16 15 12 8 6 4 4 3 1 0 1 2 2 2
0 0 0 0 0 0 0 0 0 0 0 0 0 0 0 0 0 0 0 0 1 2 2 4 6 6 5 7 13 17 17 16 13 11 9 7 7 7 6 4 6 8 9 9
0 0 0 0 1 1 0 0 0 0 0 0 0 0 0 1 1 1 2 1 1 2 4 8 12 14 11 10 13 17 17 14 13 13 13 13 13 14 15 15 17 20 21 20
0 0 0 1 2 3 1 0 0 0 0 0 0 1 2 3 3 4 4 4 3 5 8 13 18 22 22 20 21 21 19 16 15 19 23 25 25 25 27 28 31 35 36 36
0 0 0 1 3 3 1 0 0 0 0 0 1 4 8 9 8 8 8 9 9 10 13 20 28 32 32 34 35 32 27 23 24 29 36 39 40 41 41 42 44 49 51 50
1 1 0 0 1 1 1 0 0 0 0 0 3 12 21 21 17 14 14 15 16 16 19 29 40 44 43 45 45 40 35 32 33 40 46 49 52 54 55 56 58 61 61 57
8 9 7 2 0 0 0 0 0 0 0 0 7 24 37 36 28 23 21 20 22 25 29 38 49 54 53 53 50 45 42 40 41 48 54 56 58 61 63 66 69 72 71 67
22 26 19 7 1 0 0 0 0 0 1 4 15 35 50 50 42 35 31 30 34 39 43 47 53 57 57 55 52 49 46 44 46 52 57 57 58 60 63 67 71 74 74 73
30 34 27 11 3 0 0 0 0 2 6 13 26 43 56 57 52 47 44 44 48 52 52 51 51 52 51 49 46 45 43 41 43 47 49 50 50 52 55 58 62 66 67 66
28 32 27 16 7 3 4 3 2 7 14 22 32 45 52 51 49 47 46 47 50 51 50 46 44 41 40 38 35 32 30 27 28 32 34 35 36 39 40 42 47 52 53 53
23 28 26 19 12 9 9 5 3 11 21 26 30 37 40 40 40 41 37 37 39 38 37 34 30 27 26 26 22 18 15 12 12 14 16 17 19 22 24 27 31 34 35 35
24 28 27 20 16 16 14 8 7 16 27 28 26 30 35 37 40 38 33 29 26 23 20 18 15 13 13 13 11 8 6 4 3 4 4 5 6 8 11 14 16 16 16 16
25 28 30 28 27 28 24 18 18 25 28 27 27 33 40 42 40 35 29 22 16 11 8 7 5 4 4 4 4 3 3 1 1 1 1 1 1 2 3 4 4 5 6 5
18 20 24 28 33 33 29 24 22 22 21 21 29 40 44 40 34 28 22 15 9 6 4 2 1 1 1 1 1 1 1 0 0 0 0 0 0 0 0 0 0 1 2 2
6 8 11 16 20 21 20 17 13 10 11 19 33 43 43 36 29 23 16 11 7 5 3 1 0 0 0 0 0 0 0 0 0 0 0 0 0 0 0 0 0 0 1 1
1 2 4 6 7 10 10 8 7 7 13 25 38 43 40 33 25 18 12 9 6 4 3 2 0 0 0 0 0 0 0 0 0 0 0 0 0 0 0 0 0 0 0 0
0 1 2 4 7 9 8 7 8 12 22 34 42 41 37 29 21 14 10 9 6 4 3 2 1 0 0 0 0 0 0 0 0 0 0 0 0 0 0 0 0 0 0 0
Wind_Speed
15 14 14 13 11 10 12 13 12 10 5 6 7 4 4 7 6 7 7 7 8 8 8 8 9 10 10 10 10 10 10 8 6 5 5 4 4 3 4 5 5 3 3 3
16 18 18 14 10 11 13 14 12 9 7 7 7 2 3 5 7 7 8 9 9 9 10 10 10 10 10 10 10 10 10 10 7 5 3 3 4 3 4 5 4 3 3 2
19 16 13 11 11 13 13 12 12 12 12 8 7 3 3 6 7 8 8 9 10 11 12 12 11 11 10 11 11 10 10 10 7 7 4 4 3 2 4 5 4 3 3 3
19 18 15 12 12 13 12 11 13 14 12 8 7 3 4 7 8 8 9 9 10 11 13 13 13 12 12 11 11 10 9 8 7 6 5 6 5 4 5 4 5 4 3 3
19 18 15 14 12 13 13 13 14 13 9 8 8 5 5 7 8 9 9 10 10 11 12 13 13 12 12 12 11 10 10 8 8 7 6 5 4 3 4 4 7 5 4 3
21 19 16 14 12 12 12 13 13 7 3 3 11 8 2 3 6 10 10 10 10 11 12 12 12 11 10 10 10 11 11 9 8 7 6 5 4 3 4 5 6 4 4 4
21 21 18 16 15 12 10 10 8 6 1 4 9 6 3 5 6 9 11 12 12 11 12 12 13 13 11 12 11 11 12 10 9 8 7 6 5 4 4 4 5 5 4 5
18 16 15 15 14 13 10 11 9 9 9 4 1 3 2 6 7 10 12 13 12 13 13 13 13 13 12 13 13 13 12 11 10 9 7 6 5 4 4 5 4 5 3 4
18 14 11 11 12 12 10 10 10 10 13 7 2 1 4 5 4 8 12 13 12 12 13 14 14 14 14 13 12 13 12 11 10 10 8 6 6 5 4 5 5 4 3 4
20 17 14 9 8 11 11 10 8 8 8 8 1 1 2 4 4 6 10 12 12 12 13 14 14 14 14 14 12 12 12 11 10 10 9 9 8 7 6 5 6 5 4 3
20 18 16 11 9 10 8 9 8 7 7 7 4 1 6 9 7 7 9 11 13 13 14 14 13 14 14 14 13 12 11 11 10 10 9 8 9 9 8 6 6 5 5 5
17 14 13 12 8 6 9 10 8 7 6 8 6 3 2 2 2 3 7 9 9 10 12 14 14 13 13 14 14 13 12 12 11 10 9 9 8 8 8 8 7 6 6 6
10 10 12 13 6 3 7 10 9 8 7 6 6 2 4 2 3 2 5 6 8 8 10 12 13 12 13 13 13 14 13 13 12 11 10 9 9 8 8 8 7 8 7 7
8 9 12 13 4 5 7 15 13 9 8 5 4 2 4 6 5 3 3 5 6 7 8 9 10 9 8 9 9 10 11 11 11 10 10 9 9 8 8 7 7 7 7 8
10 13 14 14 9 10 12 15 15 11 10 7 4 3 7 8 6 5 3 4 5 5 6 6 8 8 8 7 7 7 7 7 8 8 8 7 7 7 7 7 7 7 7 9
10 12 13 14 13 13 14 14 13 11 9 8 4 5 10 9 6 6 5 5 5 6 5 5 6 7 7 6 6 5 4 5 5 5 5 5 5 4 5 5 5 5 6 6
8 9 12 13 13 12 13 10 10 9 7 5 1 7 12 10 7 7 7 7 7 7 7 7 7 6 6 6 5 5 5 4 5 4 3 3 2 2 0 2 2 2 3 4
7 9 9 12 10 14 7 5 5 5 3 2 7 10 12 13 10 9 9 10 11 11 10 10 9 9 9 8 8 7 7 7 7 6 5 5 5 5 3 3 3 2 1 1
8 8 8 9 11 10 6 2 3 2 1 4 9 13 15 14 13 11 11 11 12 12 12 12 12 12 12 11 10 11 11 11 11 11 9 9 8 6 5 5 4 3 3 2
9 10 11 10 9 6 2 4 6 4 1 4 9 12 16 13 8 8 11 12 13 13 13 13 14 14 13 12 11 12 12 11 11 10 9 8 8 7 6 5 5 4 3 3
12 12 13 11 7 2 4 4 3 2 3 4 8 10 11 8 10 14 14 14 14 14 14 13 13 13 12 11 11 12 11 11 10 9 9 8 6 5 5 5 4 3 3 3
4 4 7 8 7 2 6 5 3 2 2 5 10 12 15 18 18 17 16 14 14 14 14 13 12 12 10 10 10 11 10 8 7 7 6 6 5 6 5 4 3 3 3 4
4 4 2 2 3 5 7 7 4 2 2 7 12 17 19 20 19 17 15 14 13 13 12 11 12 11 10 9 9 10 8 6 6 5 4 3 3 2 3 3 4 3 3 3
2 4 1 1 4 4 5 6 4 1 4 7 12 17 18 18 17 16 14 13 12 11 10 10 10 10 8 8 8 7 6 5 5 4 3 2 2 2 1 2 3 3 3 3
2 1 1 4 4 5 6 3 1 5 7 9 13 16 17 18 17 15 12 12 11 10 9 8 8 7 7 6 6 6 6 5 5 5 4 4 4 2 1 2 2 2 1 1
4 4 4 4 4 4 4 3 6 10 11 13 16 16 16 16 16 15 12 11 10 10 8 7 7 6 6 6 5 5 5 5 5 6 6 6 5 3 3 3 3 2 3 4
Wind_Direction
244 243 255 265 272 293 305 307 313 308 294 286 285 263 167 161 172 165 168 172 171 163 159 153 152 153 149 142 144 146 142 143 146 143 147 141 147 154 131 124 120 112 89 81
252 249 256 271 289 291 291 298 302 299 296 288 291 279 152 159 172 169 169 172 171 163 161 162 161 159 153 149 148 151 150 153 158 151 148 147 144 160 127 109 122 129 124 141
244 254 257 266 282 288 292 299 309 311 307 301 300 259 174 176 173 161 165 164 166 167 167 167 165 162 158 156 158 162 159 156 160 150 149 140 131 158 133 136 150 147 137 105
252 261 265 269 275 286 295 308 314 311 310 316 303 274 197 181 177 165 166 163 165 165 163 165 166 168 166 164 160 152 153 157 156 157 163 169 178 178 158 154 145 151 163 156
254 257 261 264 271 285 299 312 307 315 328 337 310 279 185 177 171 167 164 161 159 161 164 165 167 168 166 163 158 152 157 164 162 173 177 191 187 170 148 143 137 159 169 182
265 269 270 269 274 282 295 301 296 310 356 314 274 265 162 167 160 155 154 153 153 156 158 160 162 159 160 158 159 161 163 167 170 181 179 198 203 177 153 156 153 180 172 183
254 260 264 266 269 273 279 287 294 302 279 222 258 269 140 128 120 135 144 146 149 153 154 159 162 163 166 167 169 168 166 171 177 184 185 193 199 190 177 183 175 199 187 181
248 248 250 249 252 265 269 275 289 306 304 284 185 320 77 96 104 125 134 138 149 156 158 163 166 165 168 173 173 171 171 175 180 185 188 192 192 201 197 206 210 201 228 182
255 258 255 246 245 252 268 276 292 287 289 300 89 61 9 8 117 130 134 142 152 157 158 164 166 168 171 174 176 175 173 177 183 187 186 193 198 217 215 194 212 211 202 174
249 265 266 246 244 254 257 280 296 298 307 311 49 93 162 251 237 164 146 150 153 157 159 161 167 172 173 177 176 175 174 178 183 187 189 195 200 210 216 216 209 212 199 198
239 253 263 258 241 259 262 260 268 291 298 306 317 136 187 203 211 182 157 151 157 163 162 162 167 171 174 175 175 178 175 179 186 192 195 204 194 202 207 215 218 209 200 190
234 242 257 259 252 271 264 260 255 256 280 291 303 108 129 191 154 163 144 141 148 160 161 163 165 167 173 176 177 179 182 185 189 193 194 203 201 198 203 208 209 206 204 200
244 239 248 250 241 330 295 279 264 258 259 278 303 111 133 101 83 91 118 134 147 161 159 162 163 169 174 176 178 181 186 190 192 193 195 198 202 204 208 209 203 201 201 205
259 239 247 261 220 159 253 275 273 257 255 262 285 133 147 123 116 100 114 141 155 159 155 157 156 159 168 170 171 176 185 189 190 190 193 197 200 204 206 209 206 204 201 205
255 239 239 252 217 187 215 236 246 248 253 261 253 147 131 121 128 135 131 125 127 137 152 149 148 150 158 159 161 168 172 177 182 178 189 197 201 202 204 209 208 207 207 212
263 249 247 251 244 216 219 226 235 243 247 252 249 116 109 103 109 109 99 98 109 123 135 128 134 137 142 144 146 156 157 159 159 167 175 178 187 192 201 207 212 211 212 218
283 262 247 251 254 253 237 232 236 234 240 246 233 119 120 111 101 91 92 88 80 86 85 85 83 97 104 109 117 125 118 108 102 98 91 99 116 115 156 222 202 222 230 233
258 265 252 246 246 247 253 258 261 243 204 141 123 121 117 111 97 80 76 84 78 71 74 81 81 78 80 78 78 78 78 73 75 70 65 68 74 71 60 52 51 44 23 325
240 243 248 244 236 241 256 301 321 302 127 119 122 122 118 118 111 88 77 78 83 80 75 72 73 72 69 68 70 73 68 66 63 57 49 46 47 57 55 48 37 32 17 345
224 229 236 236 234 230 230 39 18 21 72 101 129 137 141 148 129 111 99 91 87 82 78 77 75 72 67 63 66 73 69 65 59 55 49 43 44 45 42 39 33 21 4 344
214 217 226 227 224 155 46 62 34 229 155 117 116 129 148 143 116 120 111 101 95 90 86 82 79 74 70 68 68 69 67 62 59 56 52 43 38 50 47 30 15 358 349 340
290 245 238 242 226 131 32 60 46 65 79 112 112 115 112 110 114 117 114 110 104 98 93 88 82 78 72 71 73 70 63 59 56 54 51 38 26 24 39 17 350 336 331 315
350 341 332 359 67 73 61 64 27 11 91 106 112 117 120 123 125 123 119 113 107 100 95 91 89 83 74 67 66 69 60 53 51 44 38 26 18 13 7 347 331 330 342 348
341 331 338 86 81 67 70 78 42 354 86 98 116 123 125 124 124 122 117 112 106 102 99 98 94 89 83 75 71 70 58 45 37 24 7 337 309 296 355 333 325 347 358 10
277 285 127 88 78 64 44 37 80 81 81 96 109 115 120 121 121 118 115 112 109 104 99 97 97 95 92 88 79 71 57 36 18 357 341 323 316 325 322 291 289 294 292 240
50 36 37 70 73 100 96 77 88 94 94 97 103 107 112 116 118 116 112 108 105 101 98 95 93 91 86 80 72 64 53 34 10 350 343 335 331 340 324 314 315 275 259 225